• In Deutschland
  • Länderverzeichnis
  • Für 7 Tage
  • Wassertemperatur
  • Satellitenkarten
  • Wetterkarte
  • Widgets
  • user-avatar
    Anmelden

    Stündliche Wetter Hof

    Heute, 11 Dezember, Montag

    Zeit Temperatur Niederschläge Wind Luftdruck Luftfeuchtigkeit
    00:00 +1°C° 0,4 mm 8 m/S 694 mmHg 87%
    01:00 +1°C° 0,4 mm 8 m/S 694 mmHg 86%
    02:00 +2°C° 0,2 mm 7 m/S 694 mmHg 87%
    03:00 +2°C° 0,2 mm 7 m/S 695 mmHg 88%
    04:00 +2°C° 0,2 mm 6 m/S 695 mmHg 89%
    05:00 +1°C° 0,1 mm 5 m/S 695 mmHg 90%
    06:00 +1°C° 0,1 mm 4 m/S 695 mmHg 92%
    07:00 +1°C° 0,1 mm 3 m/S 696 mmHg 93%
    08:00 +1°C° 0,4 mm 3 m/S 695 mmHg 93%
    09:00 +2°C° 0,4 mm 2 m/S 695 mmHg 94%
    10:00 +2°C° 0,4 mm 2 m/S 695 mmHg 94%
    11:00 +2°C° 0,5 mm 2 m/S 695 mmHg 92%
    12:00 +2°C° 0,5 mm 3 m/S 694 mmHg 90%
    13:00 +2°C° 0,5 mm 3 m/S 694 mmHg 88%
    14:00 +2°C° 0,2 mm 3 m/S 693 mmHg 87%
    15:00 +2°C° 0,2 mm 3 m/S 693 mmHg 86%
    16:00 +2°C° 0,2 mm 3 m/S 693 mmHg 85%
    17:00 +2°C° 0 mm 3 m/S 694 mmHg 85%
    18:00 +2°C° 0 mm 3 m/S 694 mmHg 86%
    19:00 +2°C° 0 mm 3 m/S 695 mmHg 87%
    20:00 +2°C° 0,1 mm 3 m/S 695 mmHg 88%
    21:00 +1°C° 0,1 mm 4 m/S 696 mmHg 90%
    22:00 +3°C° 0,1 mm 4 m/S 697 mmHg 92%
    23:00 +3°C° 0,4 mm 4 m/S 697 mmHg 90%

    Morgen, 12 Dezember, Dienstag

    Zeit Temperatur Niederschläge Wind Luftdruck Luftfeuchtigkeit
    00:00 +2°C° 0,4 mm 5 m/S 698 mmHg 89%
    01:00 +2°C° 0,4 mm 5 m/S 698 mmHg 87%
    02:00 +2°C° 0,3 mm 6 m/S 698 mmHg 86%
    03:00 +2°C° 0,3 mm 6 m/S 699 mmHg 86%
    04:00 +2°C° 0,3 mm 7 m/S 699 mmHg 85%
    05:00 0°C° 0,1 mm 7 m/S 700 mmHg 84%
    06:00 -1°C° 0,1 mm 8 m/S 701 mmHg 83%
    07:00 -1°C° 0,1 mm 8 m/S 702 mmHg 82%
    08:00 -2°C° 0,1 mm 8 m/S 703 mmHg 83%
    09:00 -2°C° 0,1 mm 7 m/S 705 mmHg 83%
    10:00 -2°C° 0,1 mm 7 m/S 706 mmHg 83%
    11:00 -2°C° 0,1 mm 7 m/S 707 mmHg 81%
    12:00 -2°C° 0,1 mm 7 m/S 708 mmHg 78%
    13:00 -2°C° 0,1 mm 6 m/S 709 mmHg 76%
    14:00 -2°C° 0,1 mm 6 m/S 710 mmHg 78%
    15:00 -2°C° 0,1 mm 6 m/S 710 mmHg 80%
    16:00 -1°C° 0,1 mm 5 m/S 711 mmHg 81%
    17:00 -2°C° 0,1 mm 5 m/S 712 mmHg 83%
    18:00 -2°C° 0,1 mm 5 m/S 713 mmHg 84%
    19:00 -2°C° 0,1 mm 5 m/S 713 mmHg 86%
    20:00 -2°C° 0 mm 5 m/S 714 mmHg 87%
    21:00 -4°C° 0 mm 5 m/S 715 mmHg 88%
    22:00 -3°C° 0 mm 4 m/S 715 mmHg 89%
    23:00 -3°C° 0 mm 4 m/S 716 mmHg 89%

    übermorgen, 13 Dezember, Mittwoch

    Zeit Temperatur Niederschläge Wind Luftdruck Luftfeuchtigkeit
    00:00 -3°C° 0 mm 4 m/S 716 mmHg 89%
    01:00 -3°C° 0 mm 4 m/S 716 mmHg 90%
    02:00 -3°C° 0 mm 4 m/S 716 mmHg 89%
    03:00 -3°C° 0 mm 4 m/S 716 mmHg 89%
    04:00 -3°C° 0 mm 4 m/S 716 mmHg 89%
    05:00 -3°C° 0 mm 4 m/S 716 mmHg 89%
    06:00 -4°C° 0 mm 4 m/S 716 mmHg 89%
    07:00 -4°C° 0 mm 4 m/S 716 mmHg 89%
    08:00 -3°C° 0 mm 4 m/S 716 mmHg 87%
    09:00 -4°C° 0 mm 5 m/S 716 mmHg 86%
    10:00 -4°C° 0 mm 5 m/S 716 mmHg 84%
    11:00 -2°C° 0 mm 5 m/S 715 mmHg 82%
    12:00 -3°C° 0 mm 6 m/S 714 mmHg 80%
    13:00 -2°C° 0 mm 6 m/S 713 mmHg 78%
    14:00 -3°C° 0 mm 6 m/S 712 mmHg 78%
    15:00 -3°C° 0 mm 6 m/S 711 mmHg 78%
    16:00 -3°C° 0 mm 6 m/S 711 mmHg 78%
    17:00 -3°C° 0,2 mm 6 m/S 710 mmHg 80%
    18:00 -3°C° 0,2 mm 7 m/S 710 mmHg 82%
    19:00 -3°C° 0,2 mm 7 m/S 709 mmHg 84%
    20:00 -3°C° 0,2 mm 6 m/S 709 mmHg 86%
    21:00 -2°C° 0,2 mm 6 m/S 708 mmHg 87%
    22:00 0°C° 0,2 mm 5 m/S 708 mmHg 89%
    23:00 -1°C° 0,6 mm 6 m/S 707 mmHg 89%

    14 Dezember, Donnerstag

    Zeit Temperatur Niederschläge Wind Luftdruck Luftfeuchtigkeit
    00:00 0°C° 0,6 mm 7 m/S 707 mmHg 88%
    01:00 0°C° 0,6 mm 7 m/S 706 mmHg 88%
    02:00 +1°C° 0,8 mm 6 m/S 706 mmHg 90%
    03:00 +1°C° 0,8 mm 6 m/S 705 mmHg 91%
    04:00 +1°C° 0,8 mm 5 m/S 705 mmHg 92%
    05:00 +1°C° 0,4 mm 5 m/S 705 mmHg 92%
    06:00 +1°C° 0,4 mm 5 m/S 706 mmHg 91%
    07:00 0°C° 0,4 mm 5 m/S 706 mmHg 91%
    08:00 0°C° 0 mm 5 m/S 706 mmHg 90%
    09:00 0°C° 0 mm 5 m/S 706 mmHg 90%
    10:00 0°C° 0 mm 5 m/S 706 mmHg 89%
    11:00 0°C° 0 mm 5 m/S 705 mmHg 87%
    12:00 +1°C° 0 mm 6 m/S 705 mmHg 85%
    13:00 0°C° 0 mm 7 m/S 704 mmHg 83%
    14:00 0°C° 0,1 mm 7 m/S 703 mmHg 84%
    15:00 +2°C° 0,1 mm 7 m/S 702 mmHg 84%
    16:00 +2°C° 0,1 mm 7 m/S 701 mmHg 85%
    17:00 +2°C° 0,8 mm 7 m/S 700 mmHg 85%
    18:00 +2°C° 0,8 mm 7 m/S 700 mmHg 86%
    19:00 +2°C° 0,8 mm 7 m/S 699 mmHg 86%
    20:00 +1°C° 1,3 mm 6 m/S 699 mmHg 86%
    21:00 0°C° 1,3 mm 5 m/S 699 mmHg 86%
    22:00 -1°C° 1,3 mm 4 m/S 699 mmHg 86%
    23:00 -1°C° 0,1 mm 4 m/S 700 mmHg 86%

    15 Dezember, Freitag

    Zeit Temperatur Niederschläge Wind Luftdruck Luftfeuchtigkeit
    00:00 -2°C° 0,1 mm 4 m/S 701 mmHg 86%
    01:00 -2°C° 0,1 mm 5 m/S 701 mmHg 86%
    02:00 -2°C° 0 mm 5 m/S 702 mmHg 87%
    03:00 -4°C° 0 mm 5 m/S 703 mmHg 87%
    04:00 -4°C° 0 mm 5 m/S 703 mmHg 87%
    05:00 -4°C° 0 mm 5 m/S 704 mmHg 87%
    06:00 -4°C° 0 mm 6 m/S 704 mmHg 87%
    07:00 -4°C° 0 mm 6 m/S 705 mmHg 86%
    08:00 -4°C° 0 mm 6 m/S 705 mmHg 85%
    09:00 -3°C° 0 mm 6 m/S 706 mmHg 84%
    10:00 -3°C° 0 mm 6 m/S 706 mmHg 84%
    11:00 -2°C° 0 mm 5 m/S 706 mmHg 83%
    12:00 -1°C° 0 mm 5 m/S 706 mmHg 82%
    13:00 -1°C° 0 mm 4 m/S 706 mmHg 81%
    14:00 -1°C° 0 mm 4 m/S 706 mmHg 84%
    15:00 -1°C° 0 mm 3 m/S 706 mmHg 87%
    16:00 -1°C° 0 mm 2 m/S 706 mmHg 89%
    17:00 -1°C° 0 mm 3 m/S 706 mmHg 90%
    18:00 -2°C° 0 mm 3 m/S 706 mmHg 90%
    19:00 -2°C° 0 mm 3 m/S 707 mmHg 90%
    20:00 -2°C° 0 mm 3 m/S 707 mmHg 91%
    21:00 -2°C° 0 mm 2 m/S 707 mmHg 92%
    22:00 -2°C° 0 mm 2 m/S 707 mmHg 93%
    23:00 -3°C° 0 mm 2 m/S 707 mmHg 93%

    16 Dezember, Samstag

    Zeit Temperatur Niederschläge Wind Luftdruck Luftfeuchtigkeit
    00:00 -3°C° 0 mm 2 m/S 707 mmHg 93%
    01:00 -3°C° 0 mm 2 m/S 707 mmHg 94%
    02:00 -3°C° 0 mm 2 m/S 707 mmHg 94%
    03:00 -3°C° 0 mm 2 m/S 707 mmHg 94%
    04:00 -3°C° 0 mm 2 m/S 708 mmHg 94%
    05:00 -3°C° 0 mm 2 m/S 708 mmHg 95%
    06:00 -3°C° 0 mm 2 m/S 708 mmHg 95%
    07:00 -3°C° 0 mm 2 m/S 708 mmHg 95%
    08:00 -3°C° 0 mm 2 m/S 709 mmHg 94%
    09:00 -2°C° 0 mm 2 m/S 710 mmHg 92%
    10:00 -1°C° 0 mm 2 m/S 710 mmHg 91%
    11:00 -1°C° 0 mm 2 m/S 711 mmHg 88%
    12:00 +1°C° 0 mm 2 m/S 711 mmHg 86%
    13:00 0°C° 0 mm 3 m/S 711 mmHg 83%
    14:00 0°C° 0 mm 3 m/S 711 mmHg 85%
    15:00 -1°C° 0 mm 2 m/S 712 mmHg 86%
    16:00 -1°C° 0 mm 2 m/S 712 mmHg 87%
    17:00 -1°C° 0 mm 3 m/S 712 mmHg 88%
    18:00 -2°C° 0 mm 3 m/S 713 mmHg 89%
    19:00 -2°C° 0 mm 3 m/S 713 mmHg 90%
    20:00 -2°C° 0 mm 3 m/S 714 mmHg 90%
    21:00 -2°C° 0 mm 3 m/S 714 mmHg 89%
    22:00 -2°C° 0 mm 3 m/S 714 mmHg 89%
    23:00 -2°C° 0 mm 3 m/S 714 mmHg 90%
    Mehr zeigen